Temp
11 11 10 10 10 10 10 9 9 9 9 8 9 9 9 9 9 8 8 8 8 8 8 8 8 8 8 8 7 7 6 6
11 10 10 10 9 9 9 9 9 8 8 8 8 8 8 8 8 8 8 8 8 8 8 8 8 8 8 8 7 7 8 6
11 10 10 10 9 9 9 9 8 8 8 8 8 8 8 8 8 8 8 8 8 8 8 8 8 8 7 7 7 7 7 7
10 10 10 10 9 9 9 9 8 8 8 7 7 8 8 8 8 8 8 8 8 8 8 8 8 8 8 7 7 7 7 7
10 10 10 10 10 9 9 9 9 8 8 8 7 7 8 8 8 7 8 8 8 8 8 8 8 8 8 8 7 7 7 7
10 10 10 10 10 10 9 10 9 9 9 8 7 8 8 8 8 7 7 8 8 8 8 8 8 7 8 7 7 7 7 7
9 10 9 9 9 9 10 10 9 9 9 9 8 8 8 7 7 8 8 8 7 8 8 8 8 7 7 7 7 7 7 7
8 9 9 9 9 9 9 9 8 8 9 9 8 7 7 7 7 7 7 7 8 7 8 8 7 7 7 7 7 7 7 7
7 8 9 9 9 8 8 8 8 8 8 8 7 7 7 7 7 6 7 6 7 7 7 7 7 7 7 7 7 7 7 6
7 8 9 9 8 8 8 8 8 8 8 8 8 7 7 7 6 6 6 6 6 7 6 6 6 7 7 7 7 6 6 6
7 7 9 8 8 8 8 7 7 8 8 8 8 7 7 7 7 6 6 6 6 7 6 6 6 6 6 7 7 7 7 6
9 10 9 9 8 8 8 8 8 7 8 7 7 7 7 7 7 6 6 6 7 7 7 6 6 6 6 6 6 6 6 6
9 9 9 9 8 8 8 8 8 8 7 7 7 7 7 7 7 6 6 6 6 6 6 6 6 5 5 5 5 6 5 6
9 9 9 9 9 9 9 8 8 8 7 7 7 7 7 7 7 6 6 6 6 6 6 6 6 5 5 5 5 5 5 5
8 9 9 8 9 9 9 8 8 8 8 7 7 7 7 7 7 7 7 6 6 5 5 5 5 5 5 5 5 6 5 5
8 8 8 8 8 8 8 7 7 7 7 7 7 6 6 6 6 6 6 6 6 5 5 5 5 5 5 4 5 5 5 5
7 7 7 7 6 6 6 6 6 6 6 6 5 5 5 5 5 5 5 5 5 5 5 4 3 4 3 4 3 3 4 4
6 6 6 6 6 6 5 5 5 5 5 5 5 5 5 5 5 5 5 5 5 5 5 4 2 2 3 3 3 3 3 3
5 5 5 5 5 5 5 4 5 5 4 4 4 4 4 4 5 5 5 5 5 4 4 4 4 2 3 2 2 2 2 2
5 4 4 4 4 4 4 4 3 3 3 3 3 4 4 4 4 5 5 4 4 4 3 3 3 3 3 2 1 2 1 2
Height
3146 3147 3148 3150 3152 3153 3154 3156 3157 3158 3160 3161 3163 3164 3165 3167 3167 3168 3169 3168 3168 3168 3168 3168 3168 3168 3168 3168 3169 3169 3167 3167
3145 3146 3147 3149 3150 3151 3152 3154 3155 3156 3158 3159 3160 3162 3163 3165 3165 3166 3167 3167 3167 3167 3167 3167 3166 3166 3166 3166 3167 3168 3166 3166
3144 3145 3145 3146 3147 3148 3150 3151 3153 3154 3156 3157 3158 3160 3161 3163 3164 3165 3166 3166 3166 3166 3166 3166 3165 3165 3164 3164 3164 3164 3166 3165
3142 3142 3143 3143 3145 3146 3148 3149 3151 3152 3153 3154 3155 3157 3159 3161 3162 3163 3163 3164 3165 3165 3165 3166 3166 3165 3164 3163 3163 3162 3162 3163
3139 3141 3142 3142 3141 3143 3144 3146 3147 3148 3150 3151 3152 3153 3155 3157 3158 3159 3160 3162 3163 3163 3163 3164 3164 3164 3164 3163 3163 3162 3161 3160
3136 3137 3139 3140 3139 3141 3141 3143 3144 3146 3147 3148 3150 3151 3152 3153 3154 3156 3157 3159 3159 3161 3161 3161 3161 3161 3161 3161 3160 3160 3159 3160
3134 3134 3136 3137 3137 3138 3139 3139 3141 3142 3143 3144 3146 3148 3149 3150 3151 3151 3153 3154 3156 3156 3157 3158 3158 3158 3158 3158 3158 3157 3156 3156
3129 3130 3133 3134 3135 3135 3136 3137 3138 3139 3139 3142 3143 3144 3145 3146 3147 3147 3148 3148 3150 3151 3152 3152 3154 3154 3154 3154 3154 3154 3154 3153
3123 3126 3128 3131 3133 3133 3134 3136 3136 3137 3139 3140 3140 3142 3142 3143 3144 3144 3145 3145 3145 3146 3147 3147 3149 3149 3149 3150 3150 3150 3150 3149
3119 3117 3124 3127 3129 3130 3131 3133 3133 3134 3136 3137 3138 3139 3139 3139 3139 3140 3141 3141 3141 3142 3142 3143 3143 3143 3143 3145 3145 3144 3145 3144
3116 3113 3119 3121 3124 3126 3127 3128 3129 3130 3131 3132 3133 3134 3134 3134 3135 3136 3137 3136 3136 3137 3138 3138 3138 3138 3138 3138 3139 3139 3139 3138
3111 3112 3115 3117 3119 3121 3122 3123 3124 3124 3126 3127 3128 3128 3129 3129 3129 3130 3130 3130 3131 3131 3132 3132 3132 3132 3131 3129 3131 3132 3131 3133
3106 3108 3110 3112 3114 3115 3117 3118 3119 3119 3120 3121 3122 3123 3124 3124 3125 3125 3125 3125 3125 3125 3125 3125 3126 3125 3125 3122 3122 3124 3122 3125
3102 3102 3104 3106 3107 3109 3111 3112 3112 3113 3113 3114 3116 3116 3117 3118 3119 3119 3119 3118 3118 3118 3118 3120 3118 3120 3117 3119 3113 3115 3117 3116
3096 3098 3100 3101 3101 3103 3105 3105 3106 3105 3106 3107 3108 3109 3109 3110 3111 3112 3112 3111 3109 3110 3110 3110 3112 3112 3110 3110 3106 3106 3108 3107
3089 3091 3093 3094 3094 3097 3099 3099 3100 3100 3101 3102 3102 3103 3102 3102 3102 3102 3102 3102 3101 3101 3101 3100 3102 3102 3102 3099 3100 3100 3094 3094
3085 3087 3089 3091 3091 3091 3093 3094 3095 3095 3095 3096 3096 3094 3094 3094 3094 3094 3094 3093 3092 3091 3091 3091 3090 3090 3089 3089 3089 3090 3088 3083
3078 3081 3083 3084 3085 3086 3087 3089 3089 3090 3089 3088 3087 3086 3084 3085 3084 3084 3082 3082 3082 3081 3080 3079 3081 3079 3079 3079 3075 3075 3079 3078
3073 3074 3076 3078 3079 3079 3080 3081 3082 3081 3081 3081 3080 3080 3078 3075 3075 3076 3074 3072 3071 3070 3070 3068 3067 3067 3067 3067 3067 3063 3065 3068
3067 3069 3069 3071 3072 3073 3074 3074 3074 3074 3073 3072 3072 3071 3069 3067 3063 3062 3062 3060 3058 3056 3056 3056 3054 3053 3052 3051 3053 3053 3052 3050
Wind_Speed
2 3 6 9 13 14 14 14 13 13 12 11 9 8 8 8 7 5 5 5 6 6 6 6 6 5 5 6 7 8 12 13
3 3 3 5 10 13 14 15 14 14 14 14 13 11 10 9 9 8 5 5 5 5 5 5 6 5 4 5 7 9 13 12
5 5 7 8 9 12 14 14 15 15 15 16 15 13 12 11 11 11 9 8 7 6 6 6 6 6 5 5 6 11 13 16
7 7 9 8 10 11 11 13 15 15 16 16 16 16 15 13 12 13 14 12 10 9 9 9 8 8 7 7 8 10 11 12
10 9 11 11 12 12 13 14 15 15 15 15 16 19 18 16 16 14 16 15 13 11 11 11 10 10 9 10 10 14 12 10
13 14 13 13 14 11 13 15 15 15 15 15 16 19 20 19 19 17 17 16 18 16 14 13 13 13 12 12 13 13 12 14
18 17 17 15 16 16 16 16 16 17 17 16 17 18 20 21 21 22 21 19 17 20 18 17 16 16 16 16 16 17 16 14
25 21 20 20 19 19 18 15 15 17 19 16 15 16 19 21 20 23 24 24 21 21 21 22 19 20 20 20 19 20 20 20
28 25 24 24 21 22 21 19 18 17 16 16 16 17 20 21 23 24 24 26 27 25 24 24 24 24 25 24 24 24 23 25
30 33 24 24 26 26 26 24 23 23 21 20 18 18 20 23 24 26 25 27 30 28 26 26 27 28 29 29 29 28 28 28
23 33 25 27 29 30 28 28 29 28 25 23 23 22 21 22 24 24 26 28 30 30 29 29 29 31 32 33 32 33 33 33
34 28 23 25 30 29 31 31 30 31 30 28 28 26 26 25 23 23 26 30 30 32 31 32 33 33 34 37 35 35 37 36
29 28 24 22 30 32 30 31 33 35 35 34 33 32 30 30 29 29 29 31 32 34 32 33 33 34 34 38 39 37 39 38
27 27 25 24 27 32 33 33 34 34 36 38 37 36 35 35 34 34 34 35 36 37 38 35 35 33 38 36 42 41 40 41
29 29 28 28 30 29 31 32 32 31 30 32 33 34 37 39 40 41 41 41 42 41 42 43 41 39 41 41 44 47 43 43
32 32 30 30 31 30 29 29 29 30 30 31 31 31 30 31 33 35 36 40 43 45 45 46 47 47 47 50 48 48 52 51
30 29 28 27 27 27 25 25 24 25 27 29 30 32 35 36 36 36 36 37 37 38 39 40 47 49 50 53 53 53 53 57
28 26 25 26 27 26 25 25 27 29 32 35 37 38 41 39 37 38 40 42 43 43 42 40 37 42 47 50 55 56 54 56
26 26 27 26 26 26 27 28 30 32 34 37 40 41 44 48 49 48 47 45 45 45 45 46 46 44 41 45 50 54 56 56
28 27 28 28 28 28 29 30 33 35 38 40 42 44 45 45 46 46 45 44 44 45 45 46 47 49 52 52 53 51 57 57
Wind_Direction
193 216 232 235 230 233 237 237 237 243 245 248 249 255 258 261 272 301 338 335 339 339 341 338 336 331 323 302 278 253 238 224
227 254 265 249 245 243 244 245 247 250 251 249 250 251 260 259 257 267 282 299 302 310 312 318 320 321 315 300 290 275 267 248
249 250 247 244 245 249 251 254 259 258 259 257 254 254 259 265 264 263 264 272 280 285 290 297 303 307 298 285 281 282 294 287
230 229 233 227 241 250 252 256 259 260 260 254 252 255 257 263 269 261 261 265 273 284 293 298 303 307 303 292 281 279 284 286
246 247 241 249 243 242 247 251 254 258 258 256 251 250 252 254 255 254 259 261 267 273 280 290 296 296 296 299 297 291 290 285
245 251 246 245 250 228 237 246 254 255 258 255 250 254 257 258 262 262 260 259 262 263 269 273 281 292 295 290 290 283 298 289
254 247 247 246 251 259 252 251 246 249 246 247 249 251 257 260 265 268 262 252 257 262 262 266 271 276 284 288 290 286 287 279
267 247 243 240 246 253 256 259 268 264 263 256 252 254 256 259 260 265 271 274 269 264 264 264 263 268 273 277 279 280 283 280
266 253 242 239 241 247 254 255 263 270 273 274 269 261 262 262 261 261 265 267 268 269 268 267 267 266 266 267 270 273 277 278
260 265 254 240 240 246 249 255 259 266 268 269 274 276 270 264 261 264 265 267 272 272 273 273 271 269 268 268 268 268 270 271
242 263 260 239 242 245 252 255 258 260 265 268 271 269 268 265 262 265 267 267 269 272 271 271 272 273 274 271 270 271 271 270
251 264 271 247 245 250 251 254 257 260 263 263 268 268 267 264 262 257 260 265 268 271 272 271 271 271 273 274 272 271 271 273
247 252 258 255 242 251 254 254 254 258 259 260 262 263 266 269 267 266 265 266 268 270 270 268 268 271 271 273 274 273 272 271
246 246 247 248 244 246 251 253 255 258 257 256 258 261 262 263 264 267 267 270 274 272 273 273 270 268 271 272 273 274 273 273
248 250 252 253 254 252 249 250 254 257 259 259 260 261 261 262 262 263 264 264 266 268 272 271 271 269 268 268 269 275 279 274
248 249 248 248 252 254 254 257 261 266 267 267 265 263 263 268 270 269 268 267 268 266 264 265 266 268 267 266 268 271 272 274
248 248 249 251 254 259 260 261 264 269 273 273 272 276 278 279 277 275 277 277 276 273 270 266 261 262 265 268 269 269 270 272
240 241 241 246 249 251 256 259 261 264 268 271 271 273 276 273 275 281 283 280 277 275 273 268 270 266 262 265 270 269 267 272
238 244 251 250 248 248 257 263 268 273 275 276 278 278 280 282 281 284 288 288 283 279 274 271 268 259 264 265 264 271 272 269
242 250 252 253 255 266 272 272 275 278 279 280 280 282 285 286 285 285 282 279 275 272 270 268 266 265 266 261 261 263 262 269